Weather History for Mount Holly, NJ

Change the Weather History Date:

Tuesday, May 20, 2014

  Actual Average (KWRI) Record (KWRI)
Temperature  
Mean Temperature 62 °F -  
Max Temperature 75 °F 69 °F 86 °F (1998)
Min Temperature 50 °F 50 °F 35 °F (2002)
Degree Days  
Heating Degree Days 2    
Growing Degree Days 12 (Base 50)    
Moisture  
Dew Point 43 °F    
Average Humidity 48    
Maximum Humidity 81    
Minimum Humidity 28    
Precipitation  
Precipitation 0.02 in - - ()
Sea Level Pressure  
Sea Level Pressure 30.09 in    
Wind  
Wind Speed 5 mph (WNW)    
Max Wind Speed 9 mph    
Max Gust Speed 18 mph    
Visibility 10 miles    
Events Rain    
Averages and records for this station are not official NWS values.
T = Trace of Precipitation, MM = Missing Value Source: NWS Daily Summary

Daily Weather History Graph

Daily Weather History Graph

Search for Another Location

Airport:

Trip Planner

Search our weather history database for the weather conditions in past years. The results will help you decide how hot, cold, wet, or windy it might be!

Date:

Astronomy

May. 20, 2014 Rise Set
Actual Time 5:40 AM EDT 8:12 PM EDT
Civil Twilight 5:08 AM EDT 8:43 PM EDT
Nautical Twilight 4:30 AM EDT 9:22 PM EDT
Astronomical Twilight 3:47 AM EDT 10:05 PM EDT
Moon 12:40 AM EDT (5/20) 11:44 AM EDT (5/20)
Length of Visible Light 15h 34m
Length of Day
14h 32m
Waning Gibbous, 60% of the Moon is Illuminated
May 20
Waning Gibbous
May 21
Last Quarter
May 28
New
Jun 5
First Quarter
Jun 13
Full

Hourly Weather History & Observations

Time (EDT) Temp. Dew Point Humidity Pressure Visibility Wind Dir Wind Speed Gust Speed Precip Events Conditions
12:54 AM 57.0 °F 42.1 °F 57% 30.14 in 10.0 mi West 3.5 mph - N/A   Clear
2:54 AM 55.0 °F 42.1 °F 62% 30.14 in 10.0 mi NW 3.5 mph - N/A   Clear
3:54 AM 54.0 °F 42.1 °F 64% 30.15 in 10.0 mi WNW 3.5 mph - N/A   Clear
4:54 AM 50.0 °F 43.0 °F 77% 30.15 in 10.0 mi Calm Calm - N/A   Clear
5:54 AM 53.1 °F 42.1 °F 66% 30.17 in 10.0 mi West 4.6 mph - N/A   Clear
6:54 AM 55.0 °F 43.0 °F 64% 30.18 in 10.0 mi West 4.6 mph - N/A   Clear
7:54 AM 59.0 °F 44.1 °F 58% 30.17 in 10.0 mi WNW 6.9 mph - N/A   Clear
8:54 AM 64.0 °F 44.1 °F 48% 30.17 in 10.0 mi WNW 8.1 mph - N/A   Clear
9:54 AM 66.9 °F 44.1 °F 44% 30.15 in 10.0 mi NW 5.8 mph - N/A   Clear
10:54 AM 69.1 °F 43.0 °F 39% 30.14 in 10.0 mi NNW 9.2 mph - N/A   Clear
11:54 AM 72.0 °F 43.0 °F 35% 30.12 in 10.0 mi Variable 5.8 mph - N/A   Clear
12:14 PM 72.0 °F 41.0 °F 33% 30.11 in 10.0 mi NNW 8.1 mph - N/A   Partly Cloudy
12:54 PM 73.9 °F 39.9 °F 29% 30.09 in 10.0 mi NNW 9.2 mph 17.3 mph N/A   Clear
1:54 PM 73.0 °F 39.0 °F 29% 30.07 in 10.0 mi WNW 9.2 mph - N/A   Partly Cloudy
2:54 PM 73.9 °F 39.0 °F 28% 30.05 in 10.0 mi West 9.2 mph 18.4 mph N/A   Mostly Cloudy
3:54 PM 75.0 °F 39.9 °F 28% 30.04 in 10.0 mi West 9.2 mph 17.3 mph N/A   Partly Cloudy
4:54 PM 75.0 °F 39.9 °F 28% 30.02 in 10.0 mi West 8.1 mph - N/A   Clear
5:54 PM 73.9 °F 39.0 °F 28% 30.02 in 10.0 mi West 9.2 mph - N/A   Partly Cloudy
6:54 PM 73.0 °F 39.9 °F 30% 30.02 in 10.0 mi West 9.2 mph - N/A   Clear
7:54 PM 70.0 °F 44.1 °F 39% 30.01 in 10.0 mi SW 4.6 mph - N/A   Clear
8:54 PM 70.0 °F 43.0 °F 38% 30.02 in 10.0 mi WSW 4.6 mph - N/A   Mostly Cloudy
9:54 PM 63.0 °F 53.1 °F 70% 30.05 in 10.0 mi Calm Calm - 0.01 in Rain Light Rain
10:54 PM 62.1 °F 52.0 °F 70% 30.04 in 10.0 mi Calm Calm - 0.01 in   Overcast
11:54 PM 61.0 °F 55.0 °F 81% 30.05 in 10.0 mi Calm Calm - N/A   Overcast